Regional Weather Roundup
Issued by NWS

Home | Current Version | Previous Version | Graphics & Text | Print | Product List | Glossary On
Versions: 1 2 3 4 5 6 7 8 9 10 11 12 13 14 15 16 17 18 19 20 21 22 23 24 25 26 27 28 29 30 31 32 33 34 35 36 37 38 39 40 41 42 43 44 45 46 47 48 49 50
000
ASUS43 KIND 022209
RWRIN

WEATHER ROUNDUP FOR INDIANA
NATIONAL WEATHER SERVICE INDIANAPOLIS IN
600 PM EDT SAT MAY 02 2015

NOTE: "FAIR" INDICATES FEW OR NO CLOUDS BELOW 12,000 FEET WITH NO
SIGNIFICANT WEATHER AND/OR OBSTRUCTIONS TO VISIBILITY.

* - STATION DOES NOT REPORT WEATHER SUCH AS PRECIPITATION OR FOG.

+ - STATION NOT QUALITY CONTROLLED BY THE NATIONAL WEATHER SERVICE.
    USE DATA WITH CAUTION...ESPECIALLY DEWPOINT AND RELATIVE
    HUMIDITY OBSERVATIONS.

INZ001>003-010>013-019-020-022300-
NORTHWEST INDIANA

CITY           SKY/WX    TMP DP  RH WIND       PRES   REMARKS
GARY /AIRPORT/ MOSUNNY   79 N/A N/A SW9       29.97F
KNOX *+        SUNNY     75 N/A N/A W10       29.98S
LA PORTE +     SUNNY     76  35  22 W8        29.99S
MICHIGAN CITY+ SUNNY     73  23  15 CALM      29.98F
MONTICELLO +   SUNNY     73  42  32 SW9G16    30.00S
VALPARAISO     SUNNY     75  33  21 W8        29.98F

$$

LMZ046-743>745-022300-
SOUTHERN LAKE MICHIGAN

STATION/POSITION TIME  TEMP    WIND        PRES    WAVE
                       AIR SEA DIR/SP/G            HT
                 (UTC) (F)     (DEG/KT/KT) (MB)    (FT)
BURNS HARBOR     2200   62      80/ 11/ 12 1015.6S
MICHIGAN CITY    2200   61      40/ 12/ 13   N/A
5NW MICH CITY    2200   55 51   90/  6/  8   N/A     0

$$

INZ004-005-014>016-021>024-022300-
NORTH CENTRAL INDIANA

CITY           SKY/WX    TMP DP  RH WIND       PRES   REMARKS
ELKHART        SUNNY     75  30  19 SW8       29.99S
GOSHEN         SUNNY     73  41  31 W12       29.99F
LOGANSPORT +   SUNNY     72  32  23 SW10      30.01F
PERU/GRISSOM   SUNNY     73  42  32 VRB7      30.00S
ROCHESTER +    SUNNY     77  37  24 S8G16     30.01S
SOUTH BEND     SUNNY     75  34  22 NW5       29.99F
WARSAW +       SUNNY     72  37  28 SW5G10    30.00F

$$

INZ006>009-017-018-025>027-022300-
NORTHEAST INDIANA

CITY           SKY/WX    TMP DP  RH WIND       PRES   REMARKS
ANGOLA *+      SUNNY     75  39  27 W8        30.00S
AUBURN +       SUNNY     73  36  25 W9        30.02S
FORT WAYNE     MOSUNNY   73  41  31 SW9       30.02S
HUNTINGTON +   SUNNY     73  40  30 W12       30.01S

$$

INZ028-029-035-036-043>045-051>053-022300-
WEST CENTRAL INDIANA

CITY           SKY/WX    TMP DP  RH WIND       PRES   REMARKS
CRAWFORDSVL +  SUNNY     72  30  20 SW10      30.02S
GREENCASTLE +  MOSUNNY   72  34  25 W7        30.03F
LAFAYETTE      SUNNY     73  39  29 VRB7      30.00F
TERRE HAUTE    MOSUNNY   74  44  34 W13G18    30.03S

$$

INZ030>032-037>040-046>048-054>057-064-065-022300-
CENTRAL INDIANA

CITY           SKY/WX    TMP DP  RH WIND       PRES   REMARKS
CP ATTERBURY + MOSUNNY   73  39  29 CALM      30.02F
FISHERS *+     SUNNY     72  48  43 W8        30.02F
FRANKFORT +    SUNNY     74  42  31 S6        30.03F
GREENWOOD *+   MOSUNNY   75  37  25 SW5       30.03S
INDIANAPOLIS   MOSUNNY   74  42  31 SW12      30.01S
-EAGLE CREEK   MOSUNNY   73  42  32 S7        30.02S
MARION +       MOSUNNY   73  37  26 SW8G18    30.02S
MT COMFORT *+  SUNNY     75  19  12 SW9       30.03S
SHELBYVILLE    SUNNY     76  44  32 SW6       30.02S
ZIONSVILLE +   MOSUNNY   74  38  27 SW10      30.03S

$$

INZ033-034-041-042-049-050-058-059-022300-
EAST CENTRAL INDIANA

CITY           SKY/WX    TMP DP  RH WIND       PRES   REMARKS
MUNCIE         SUNNY     73  41  31 W8        30.02F

$$

INZ060-061-067>069-081>083-085>088-022300-
SOUTHWEST INDIANA

CITY           SKY/WX    TMP DP  RH WIND       PRES   REMARKS
EVANSVILLE     MOSUNNY   71  45  39 S6        30.05F
HUNTINGBURG *+ MOSUNNY   73  45  35 W10       30.05S
WASHINGTON +   MOSUNNY   74  38  27 SW9G16    30.04R

$$

INZ062-063-066-070>080-084-089>092-022300-
SOUTH CENTRAL AND SOUTHEAST INDIANA

CITY           SKY/WX    TMP DP  RH WIND       PRES   REMARKS
BEDFORD +      MOSUNNY   73  39  29 SW6       30.04S
BLOOMINGTON    MOSUNNY   74  39  28 SW12G20   30.04S
MADISON *+     MOSUNNY   73  37  27 S7        30.06S
NORTH VERNON + SUNNY     73  41  31 SW9       30.04F
SEYMOUR +      MOSUNNY   72  46  40 SW6       30.03S

$$




USA.gov is the U.S. government's official web portal to all federal, state and local government web resources and services.